Location: Cambridge (historical)
(38.6883°N, 119.0140°W)
Time: 05:18:24
(UTC+00:00)

VELOX 1 - Pass Details

Date: 25 September 2021
Orbit: 627 x 642 km, 98.3° (Epoch: 23 October)

Event Time Altitude Azimuth Distance (km) Brightness Sun altitude
Exits shadow 10:50:41 24° 41° (NE) 1,319 ? -33.8°
Drops below altitude 10° 10:53:08 10° 11° (N) 2,015 ? -33.4°
Sets 10:55:34 0° 360° (N) 2,925 ? -32.9°
